DW2274 Weather Reports


time (UTC)temp
F
wind
direction
speed
knots
gust
knots
rain 1hr
in
rain 24hr
in
rain mn
in
humidity
%
barometer
mb
20260504050007 41 336 0.0 0.9 0.00 0.00 0.00 78 1016.7
20260504044512 42 336 0.0 0.0 0.00 0.00 0.00 75 1016.6
20260504043009 42 336 0.0 0.0 0.00 0.00 0.00 74 1016.7
20260504041504 42 336 0.0 0.0 0.00 0.00 0.00 75 1016.5
20260504040106 42 336 0.0 0.0 0.00 0.00 0.00 75 1016.5
20260504034613 43 336 0.0 0.0 0.00 0.00 0.00 75 1016.3
20260504033128 44 336 0.0 0.0 0.00 0.00 0.00 73 1016.1
20260504031603 44 336 0.0 0.0 0.00 0.00 0.00 71 1016.0
20260504030104 45 336 0.0 0.0 0.00 0.00 0.00 68 1016.0
20260504024557 46 336 0.0 0.0 0.00 0.00 0.00 65 1015.9
20260504023104 47 336 0.0 0.0 0.00 0.00 0.00 63 1016.0
20260504021557 48 336 0.0 0.0 0.00 0.00 0.00 61 1015.9
20260504020100 49 336 0.0 0.0 0.00 0.00 0.00 58 1015.9
20260504014555 49 336 0.0 0.0 0.00 0.00 0.00 54 1015.9
20260504013108 50 336 0.0 0.0 0.00 0.00 0.00 52 1015.8
20260504011556 51 336 0.0 0.0 0.00 0.00 0.00 49 1015.7
20260504010110 52 336 0.0 0.0 0.00 0.00 0.00 46 1015.5
20260504004617 53 336 0.0 0.0 0.00 0.00 0.00 45 1015.4
20260504003054 54 336 0.0 0.0 0.00 0.00 0.00 42 1015.2
20260504001601 55 336 0.0 0.0 0.00 0.00 0.00 41 1015.0
20260504000053 56 336 0.0 0.0 0.00 0.00 0.00 40 1015.1
20260503234552 57 268 0.0 0.0 0.00 0.00 0.00 39 1014.8
20260503233052 58 267 0.0 0.0 0.00 0.00 0.00 38 1014.6
20260503231555 58 267 0.0 0.0 0.00 0.00 0.00 36 1014.6
20260503230058 58 301 0.0 0.0 0.00 0.00 0.00 36 1014.6
20260503224651 59 280 0.0 0.0 0.00 0.00 0.00 34 1014.7
20260503223056 59 251 0.0 0.9 0.00 0.00 0.00 36 1014.5
20260503221552 60 231 0.0 0.0 0.00 0.00 0.00 34 1014.5
20260503220049 61 284 0.0 0.9 0.00 0.00 0.00 33 1014.6
20260503214547 62 295 0.0 0.0 0.00 0.00 0.00 33 1014.5
20260503213100 62 280 0.0 0.0 0.00 0.00 0.00 31 1014.4
20260503211546 62 292 0.0 0.9 0.00 0.00 0.00 31 1014.4
20260503210055 62 315 0.0 6.1 0.00 0.00 0.00 34 1014.5
20260503204551 61 270 0.0 0.9 0.00 0.00 0.00 34 1014.5
20260503203040 60 246 0.0 0.9 0.00 0.00 0.00 33 1014.6
20260503201540 60 271 0.0 0.9 0.00 0.00 0.00 35 1014.9
20260503200042 60 279 0.0 0.0 0.00 0.00 0.00 35 1014.8
20260503194540 60 288 0.0 0.9 0.00 0.00 0.00 36 1015.0
20260503193046 59 266 0.0 7.0 0.00 0.00 0.00 38 1015.2
20260503191538 59 283 0.0 0.9 0.00 0.00 0.00 36 1015.4
20260503190039 59 252 0.0 0.9 0.00 0.00 0.00 36 1015.5
20260503184543 59 196 0.0 0.0 0.00 0.00 0.00 41 1015.7
20260503183030 58 255 0.0 6.1 0.00 0.00 0.00 37 1015.9
20260503181529 58 224 0.0 0.9 0.00 0.00 0.00 39 1015.9
20260503180031 58 238 0.0 0.9 0.00 0.00 0.00 40 1016.0
20260503174524 56 234 0.0 0.0 0.00 0.00 0.00 42 1016.3
20260503173027 57 281 0.0 0.9 0.00 0.00 0.00 39 1016.1
20260503171523 56 305 0.0 0.9 0.00 0.00 0.00 39 1016.2
20260503081510 41 245 0.0 0.0 0.00 0.00 0.00 72 1014.2
20260503071510 41 275 0.0 0.9 0.00 0.00 0.00 72 1013.4
20260503054606 42 287 0.0 0.0 0.00 0.00 0.00 74 1013.6